Location: Caracas
(10.5000°N, 66.9170°W)
Time: 00:02:37
(UTC-04:00)

Hubble Space Telescope - Visible Passes

Search period start: 19 February 2018 00:00
Search period end: 01 March 2018 00:00
Orbit: 537 x 541 km, 28.5° (Epoch: 18 February)

Date Brightness Start Highest point End Pass type
(mag) Time Alt. Az. Time Alt. Az. Time Alt. Az.
19 Feb 2.9 05:15:58 15° N 05:15:58 15° N 05:17:23 10° NNE visible
20 Feb 3.4 05:06:28 11° NNE 05:06:28 11° NNE 05:06:42 10° NNE visible
28 Feb 3.4 05:25:51 10° N 05:26:14 10° NNE 05:26:37 10° NNE visible
